Regional Weather Roundup
Issued by NWS Midland/Odessa, TX

Skip options and go directly to product.
Home | Oldest Version | Previous Version | Current Version | All | Text Only | Save Text | Print | Product List | Glossary On

Skip product version selection by date and time.   
077
ASUS44 KMAF 230410
RWRMAF
MIDLAND AREA WEATHER ROUNDUP
NATIONAL WEATHER SERVICE MIDLAND TX
1100 PM CDT TUE JUL 22 2014

...IN SOUTHWEST TEXAS AND SOUTHEAST NEW MEXICO...

CITY           SKY/WX    TMP DP  RH WIND       PRES   REMARKS
ALPINE         CLEAR     79  56  45 E3        30.30R
ANDREWS        NOT AVBL
ARTESIA        CLOUDY    84  61  45 N7        30.19R
BIG SPRING     PTCLDY    87  60  41 E9        30.17R
CARLSBAD       CLOUDY    90  53  28 E10       30.14R
DRYDEN           N/A     90  63  40 SE6       30.08R
FORT STOCKTON  PTCLDY    86  59  39 SE8       30.15R
GUAD PASS      CLOUDY    78  53  41 NE13      30.33R
HOBBS          MOCLDY    81  54  39 E8        30.22R
MARFA          PTCLDY    73  55  53 NE6       30.28R
MIDLAND AIRPK  MOCLDY    89  59  36 SE9       30.16R
MIDLAND INTL   MOCLDY    86  62  44 E12       30.15R
ODESSA         MOCLDY    86  56  35 E8        30.16R
PECOS          PTCLDY    88  56  34 E6        30.11R
PRESIDIO       FAIR      91  57  31 MISG      30.07R
SEMINOLE       MOCLDY    81  57  43 NE6       30.21R
SNYDER         CLEAR     84  62  47 SE6       30.16R
WINK           PTCLDY    89  56  32 E7        30.12R
$$
...OTHER STATIONS IN TEXAS...

CITY           SKY/WX    TMP DP  RH WIND       PRES   REMARKS
ABILENE        CLEAR     85  66  53 SE8       30.11R
AMARILLO       MOCLDY    73  63  70 SW5       30.24R
AUSTIN         PTCLDY    84  72  67 E5        30.03R
BROWNSVILLE    CLEAR     81  77  88 SE7       30.00R
CORPUS CHRISTI MOCLDY    82  77  84 SE7       30.00R
DALLAS FTW     CLEAR     86  69  56 E8        30.06R
DEL RIO        CLEAR     89  62  40 E9        30.00R
EL PASO        LGT RAIN  79  64  60 W7        30.18S
HOUSTON INT    MOCLDY    83  75  77 SE7       30.03R
LUBBOCK        CLOUDY    80  65  59 NE7       30.20S
SAN ANGELO     CLEAR     82  66  58 E6        30.10R
SAN ANTONIO    MOCLDY    87  64  46 NE5       30.04R
WACO           PTCLDY    82  71  69 E3        30.05R
WICHITA FALLS  NOT AVBL
$$
...OTHER LOCATIONS IN NEW MEXICO...

CITY           SKY/WX    TMP DP  RH WIND       PRES   REMARKS
ALAMAGORDO     MOCLDY    77  55  47 S5        30.23R
ALBUQUERQUE    CLOUDY    80  55  42 SE10      30.34F
CANNON AFB     MOCLDY    74  61  64 E8        30.28F
CLOVIS         NOT AVBL
HOLLOMAN AFB   CLOUDY    83  58  43 SW8       30.20R
ROSWELL        CLOUDY    85  59  41 E6        30.20R
RUIDOSO        CLOUDY    64  57  77 MISG      30.48R
SANTA FE       CLOUDY    72  49  44 SE5       30.43R
TRUTH OR CONSE CLOUDY    78  57  48 W5        30.30R
TUCUMCARI      MOCLDY    79  62  56 S10       30.24F
$$

USA.gov is the U.S. government's official web portal to all federal, state and local government web resources and services.